Time,TemperatureF,DewpointF,PressureIn,WindDirection,WindDirectionDegrees,WindSpeedMPH,WindSpeedGustMPH,Humidity,HourlyPrecipIn,Conditions,Clouds,dailyrainin,SoftwareType,DateUTC
2012-05-10 00:01:00,57.3,50.2,29.94,NNE,20,0.0,0.0,77,0.00,,,0.00,VWS V13.01,2012-05-10 05:01:00,
2012-05-10 00:06:00,57.0,50.5,29.94,NE,52,0.0,0.0,79,0.00,,,0.00,VWS V13.01,2012-05-10 05:06:00,
2012-05-10 00:11:00,56.2,50.5,29.94,NNE,33,0.0,0.0,81,0.00,,,0.00,VWS V13.01,2012-05-10 05:11:00,
2012-05-10 00:16:00,56.1,51.0,29.94,NNE,33,0.0,0.0,83,0.00,,,0.00,VWS V13.01,2012-05-10 05:16:00,
2012-05-10 00:21:00,55.9,51.1,29.94,NNE,33,0.0,0.0,84,0.00,,,0.00,VWS V13.01,2012-05-10 05:21:00,
2012-05-10 00:26:00,55.7,51.6,29.94,NE,35,2.7,3.1,86,0.00,,,0.00,VWS V13.01,2012-05-10 05:26:00,
2012-05-10 00:31:00,55.5,51.4,29.94,NE,35,0.0,0.0,86,0.00,,,0.00,VWS V13.01,2012-05-10 05:31:00,
2012-05-10 00:36:00,55.3,51.2,29.94,NE,35,0.0,0.0,86,0.00,,,0.00,VWS V13.01,2012-05-10 05:36:00,
2012-05-10 00:41:00,55.3,50.9,29.94,NNE,28,0.0,0.0,85,0.00,,,0.00,VWS V13.01,2012-05-10 05:41:00,
2012-05-10 00:46:00,55.3,50.9,29.94,North,4,0.0,0.0,85,0.00,,,0.00,VWS V13.01,2012-05-10 05:46:00,
2012-05-10 00:51:00,55.5,51.1,29.94,North,4,0.0,0.0,85,0.00,,,0.00,VWS V13.01,2012-05-10 05:51:00,
2012-05-10 00:56:00,55.3,50.3,29.94,North,4,0.0,0.0,83,0.00,,,0.00,VWS V13.01,2012-05-10 05:56:00,
2012-05-10 01:01:00,55.2,50.1,29.94,North,4,0.0,0.0,83,0.00,,,0.00,VWS V13.01,2012-05-10 06:01:00,
2012-05-10 01:06:00,55.0,49.9,29.94,North,4,0.0,0.0,83,0.00,,,0.00,VWS V13.01,2012-05-10 06:06:00,
2012-05-10 01:11:00,54.6,49.9,29.94,North,4,0.0,0.0,84,0.00,,,0.00,VWS V13.01,2012-05-10 06:11:00,
2012-05-10 01:16:00,54.4,49.7,29.94,North,4,0.0,0.0,84,0.00,,,0.00,VWS V13.01,2012-05-10 06:16:00,
2012-05-10 01:21:00,54.1,49.7,29.94,North,4,0.0,0.0,85,0.00,,,0.00,VWS V13.01,2012-05-10 06:21:00,
2012-05-10 01:26:00,53.9,49.8,29.94,NNE,32,0.0,0.0,86,0.00,,,0.00,VWS V13.01,2012-05-10 06:26:00,
2012-05-10 01:31:00,53.9,50.1,29.94,NNE,32,0.0,0.0,87,0.00,,,0.00,VWS V13.01,2012-05-10 06:31:00,
2012-05-10 01:36:00,53.7,50.3,29.94,NE,37,0.0,0.0,88,0.00,,,0.00,VWS V13.01,2012-05-10 06:36:00,
2012-05-10 01:41:00,53.7,50.6,29.94,NNE,26,0.0,0.0,89,0.00,,,0.00,VWS V13.01,2012-05-10 06:41:00,
2012-05-10 01:46:00,53.5,50.4,29.91,NNE,26,0.0,0.0,89,0.00,,,0.00,VWS V13.01,2012-05-10 06:46:00,
2012-05-10 01:51:00,53.5,50.4,29.91,NNE,26,0.0,0.0,89,0.00,,,0.00,VWS V13.01,2012-05-10 06:51:00,
2012-05-10 01:56:00,53.4,50.2,29.91,NNE,26,0.0,0.0,89,0.00,,,0.00,VWS V13.01,2012-05-10 06:56:00,
2012-05-10 02:01:00,53.4,50.2,29.94,NNE,26,0.0,0.0,89,0.00,,,0.00,VWS V13.01,2012-05-10 07:01:00,
2012-05-10 02:06:00,53.2,50.0,29.94,NNE,26,0.0,0.0,89,0.00,,,0.00,VWS V13.01,2012-05-10 07:06:00,
2012-05-10 02:11:00,53.2,49.7,29.94,NNE,26,0.0,0.0,88,0.00,,,0.00,VWS V13.01,2012-05-10 07:11:00,
2012-05-10 02:16:00,53.0,49.8,29.94,NNE,26,0.0,0.0,89,0.00,,,0.00,VWS V13.01,2012-05-10 07:16:00,
2012-05-10 02:21:00,52.8,50.0,29.94,NNE,26,0.0,0.0,90,0.00,,,0.00,VWS V13.01,2012-05-10 07:21:00,
2012-05-10 02:26:00,52.6,49.8,29.94,NNE,26,0.0,0.0,90,0.00,,,0.00,VWS V13.01,2012-05-10 07:26:00,
2012-05-10 02:31:00,52.5,49.6,29.94,NNE,26,0.0,0.0,90,0.00,,,0.00,VWS V13.01,2012-05-10 07:31:00,
2012-05-10 02:36:00,52.3,49.4,29.94,NNE,26,0.0,0.0,90,0.00,,,0.00,VWS V13.01,2012-05-10 07:36:00,
2012-05-10 02:41:00,52.1,49.6,29.94,NNE,26,0.0,0.0,91,0.00,,,0.00,VWS V13.01,2012-05-10 07:41:00,
2012-05-10 02:46:00,51.9,49.4,29.91,NNE,26,0.0,0.0,91,0.00,,,0.00,VWS V13.01,2012-05-10 07:46:00,
2012-05-10 02:51:00,51.9,49.4,29.91,NNE,26,0.0,0.0,91,0.00,,,0.00,VWS V13.01,2012-05-10 07:51:00,
2012-05-10 02:56:00,51.7,49.2,29.91,NNE,26,0.0,0.0,91,0.00,,,0.00,VWS V13.01,2012-05-10 07:56:00,
2012-05-10 03:01:00,51.7,49.5,29.94,NNE,26,0.0,0.0,92,0.00,,,0.00,VWS V13.01,2012-05-10 08:01:00,
2012-05-10 03:06:00,51.6,49.3,29.94,NNE,26,0.0,0.0,92,0.00,,,0.00,VWS V13.01,2012-05-10 08:06:00,
2012-05-10 03:11:00,51.6,49.3,29.94,NNE,26,0.0,0.0,92,0.00,,,0.00,VWS V13.01,2012-05-10 08:11:00,
2012-05-10 03:16:00,51.6,49.6,29.94,NNE,26,0.0,0.0,93,0.00,,,0.00,VWS V13.01,2012-05-10 08:16:00,
2012-05-10 03:21:00,51.4,49.7,29.94,NNE,26,0.0,0.0,94,0.00,,,0.00,VWS V13.01,2012-05-10 08:21:00,
2012-05-10 03:26:00,51.2,49.5,29.94,NNE,26,0.0,0.0,94,0.00,,,0.00,VWS V13.01,2012-05-10 08:26:00,
2012-05-10 03:31:00,51.2,49.5,29.94,NNE,26,0.0,0.0,94,0.00,,,0.00,VWS V13.01,2012-05-10 08:31:00,
2012-05-10 03:36:00,51.2,49.8,29.94,NNE,26,0.0,0.0,95,0.00,,,0.00,VWS V13.01,2012-05-10 08:36:00,
2012-05-10 03:41:00,51.2,49.8,29.94,NNE,26,0.0,0.0,95,0.00,,,0.00,VWS V13.01,2012-05-10 08:41:00,
2012-05-10 03:46:00,51.2,50.1,29.94,NNE,26,0.0,0.0,96,0.00,,,0.00,VWS V13.01,2012-05-10 08:46:00,
2012-05-10 03:51:00,51.0,49.9,29.94,NNE,26,0.0,0.0,96,0.00,,,0.00,VWS V13.01,2012-05-10 08:51:00,
2012-05-10 03:56:00,50.8,49.7,29.94,NNE,26,0.0,0.0,96,0.00,,,0.00,VWS V13.01,2012-05-10 08:56:00,
2012-05-10 04:01:00,50.7,49.6,29.91,NNE,26,0.0,0.0,96,0.00,,,0.00,VWS V13.01,2012-05-10 09:01:00,
2012-05-10 04:06:00,50.7,49.6,29.91,NNE,26,0.0,0.0,96,0.00,,,0.00,VWS V13.01,2012-05-10 09:06:00,
2012-05-10 04:11:00,50.5,49.4,29.91,NNE,26,0.0,0.0,96,0.00,,,0.00,VWS V13.01,2012-05-10 09:11:00,
2012-05-10 04:16:00,50.5,49.4,29.94,NNE,26,0.0,0.0,96,0.00,,,0.00,VWS V13.01,2012-05-10 09:16:00,
2012-05-10 04:21:00,50.5,49.7,29.94,NNE,26,0.0,0.0,97,0.00,,,0.00,VWS V13.01,2012-05-10 09:21:00,
2012-05-10 04:26:00,50.5,49.9,29.94,NNE,26,0.0,0.0,98,0.00,,,0.00,VWS V13.01,2012-05-10 09:26:00,
2012-05-10 04:31:00,50.5,49.9,29.94,NNE,26,0.0,0.0,98,0.00,,,0.00,VWS V13.01,2012-05-10 09:31:00,
2012-05-10 04:36:00,50.5,50.2,29.94,NNE,26,0.0,0.0,99,0.00,,,0.00,VWS V13.01,2012-05-10 09:36:00,
2012-05-10 04:41:00,50.5,50.2,29.94,NNE,26,0.0,0.0,99,0.00,,,0.00,VWS V13.01,2012-05-10 09:41:00,
2012-05-10 04:46:00,50.3,50.3,29.94,NNE,26,0.0,0.0,100,0.00,,,0.00,VWS V13.01,2012-05-10 09:46:00,
2012-05-10 04:51:00,50.3,50.3,29.94,NNE,26,0.0,0.0,100,0.00,,,0.00,VWS V13.01,2012-05-10 09:51:00,
2012-05-10 04:56:00,50.3,50.3,29.94,NNE,24,0.0,0.0,100,0.00,,,0.00,VWS V13.01,2012-05-10 09:56:00,
2012-05-10 05:01:00,50.1,50.1,29.94,NNE,24,0.0,0.0,100,0.00,,,0.00,VWS V13.01,2012-05-10 10:01:00,
2012-05-10 05:06:00,49.9,49.9,29.94,NNE,24,0.0,0.0,100,0.00,,,0.00,VWS V13.01,2012-05-10 10:06:00,
2012-05-10 05:11:00,49.9,49.9,29.94,NNW,348,0.0,0.0,100,0.00,,,0.00,VWS V13.01,2012-05-10 10:11:00,
2012-05-10 05:16:00,49.9,49.9,29.94,North,8,0.0,0.0,100,0.00,,,0.00,VWS V13.01,2012-05-10 10:16:00,
2012-05-10 05:21:00,49.8,49.8,29.94,NE,42,0.0,0.0,100,0.00,,,0.00,VWS V13.01,2012-05-10 10:21:00,
2012-05-10 05:26:00,49.9,49.9,29.94,NE,42,0.0,0.0,100,0.00,,,0.00,VWS V13.01,2012-05-10 10:26:00,
2012-05-10 05:31:00,49.8,49.8,29.94,NE,50,0.0,0.0,100,0.00,,,0.00,VWS V13.01,2012-05-10 10:31:00,
2012-05-10 05:36:00,49.8,49.8,29.94,ESE,121,0.0,0.0,100,0.00,,,0.00,VWS V13.01,2012-05-10 10:36:00,
2012-05-10 05:41:00,49.8,49.8,29.94,ESE,121,0.0,0.0,100,0.00,,,0.00,VWS V13.01,2012-05-10 10:41:00,
2012-05-10 05:46:00,49.8,49.8,29.94,ESE,121,0.0,0.0,100,0.00,,,0.00,VWS V13.01,2012-05-10 10:46:00,
2012-05-10 05:51:00,49.8,49.8,29.94,ESE,121,0.0,0.0,100,0.00,,,0.00,VWS V13.01,2012-05-10 10:51:00,
2012-05-10 05:56:00,49.9,49.9,29.94,ESE,121,0.0,0.0,100,0.00,,,0.00,VWS V13.01,2012-05-10 10:56:00,
2012-05-10 06:01:00,49.9,49.9,29.94,NNW,334,0.0,0.0,100,0.00,,,0.00,VWS V13.01,2012-05-10 11:01:00,
2012-05-10 06:06:00,49.8,49.8,29.94,NNW,333,0.0,0.0,100,0.00,,,0.00,VWS V13.01,2012-05-10 11:06:00,
2012-05-10 06:11:00,49.6,49.6,29.94,NNW,344,0.0,0.0,100,0.00,,,0.00,VWS V13.01,2012-05-10 11:11:00,
2012-05-10 06:16:00,49.6,49.3,29.94,NNW,345,0.0,0.0,99,0.00,,,0.00,VWS V13.01,2012-05-10 11:16:00,
2012-05-10 06:21:00,49.6,49.3,29.94,NNW,344,0.0,0.0,99,0.00,,,0.00,VWS V13.01,2012-05-10 11:21:00,
2012-05-10 06:26:00,49.6,49.3,29.94,NNW,345,0.0,0.0,99,0.00,,,0.00,VWS V13.01,2012-05-10 11:26:00,
2012-05-10 06:31:00,49.4,49.1,29.94,NNW,344,0.0,0.0,99,0.00,,,0.00,VWS V13.01,2012-05-10 11:31:00,
2012-05-10 06:36:00,49.4,49.1,29.94,NNW,344,0.0,0.0,99,0.00,,,0.00,VWS V13.01,2012-05-10 11:36:00,
2012-05-10 06:41:00,49.4,49.1,29.94,NNW,345,0.0,0.0,99,0.00,,,0.00,VWS V13.01,2012-05-10 11:41:00,
2012-05-10 06:46:00,49.4,49.1,29.94,NNW,344,0.0,0.0,99,0.00,,,0.00,VWS V13.01,2012-05-10 11:46:00,
2012-05-10 06:51:00,49.4,49.1,29.94,NNW,345,0.0,0.0,99,0.00,,,0.00,VWS V13.01,2012-05-10 11:51:00,
2012-05-10 06:56:00,49.6,49.3,29.94,NNW,344,0.0,0.0,99,0.00,,,0.00,VWS V13.01,2012-05-10 11:56:00,
2012-05-10 07:01:00,49.6,49.3,29.97,NNW,344,0.0,0.0,99,0.00,,,0.00,VWS V13.01,2012-05-10 12:01:00,
2012-05-10 07:06:00,49.8,49.5,29.97,NNW,345,0.0,0.0,99,0.00,,,0.00,VWS V13.01,2012-05-10 12:06:00,
2012-05-10 07:11:00,49.9,49.7,29.97,NNW,344,0.0,0.0,99,0.00,,,0.00,VWS V13.01,2012-05-10 12:11:00,
2012-05-10 07:16:00,50.1,49.8,29.97,NNW,344,0.0,0.0,99,0.00,,,0.00,VWS V13.01,2012-05-10 12:16:00,
2012-05-10 07:21:00,50.3,50.0,29.97,NNW,344,0.0,0.0,99,0.00,,,0.00,VWS V13.01,2012-05-10 12:21:00,
2012-05-10 07:26:00,51.0,51.0,29.97,NNW,345,0.0,0.0,100,0.00,,,0.00,VWS V13.01,2012-05-10 12:26:00,
2012-05-10 07:31:00,51.6,51.6,29.97,NNW,344,0.0,0.0,100,0.00,,,0.00,VWS V13.01,2012-05-10 12:31:00,
2012-05-10 07:36:00,52.1,52.1,29.97,NNW,345,0.0,0.0,100,0.00,,,0.00,VWS V13.01,2012-05-10 12:36:00,
2012-05-10 07:41:00,52.6,52.6,29.97,NNW,345,0.0,0.0,100,0.00,,,0.00,VWS V13.01,2012-05-10 12:41:00,
2012-05-10 07:46:00,53.2,53.2,29.97,NNW,344,0.0,0.0,100,0.00,,,0.00,VWS V13.01,2012-05-10 12:46:00,
2012-05-10 07:51:00,54.1,54.1,29.97,NNW,344,0.0,0.0,100,0.00,,,0.00,VWS V13.01,2012-05-10 12:51:00,
2012-05-10 07:56:00,55.0,55.0,29.97,NNW,345,0.0,0.0,100,0.00,,,0.00,VWS V13.01,2012-05-10 12:56:00,
2012-05-10 08:01:00,56.2,56.2,29.97,NNW,344,0.0,0.0,100,0.00,,,0.00,VWS V13.01,2012-05-10 13:01:00,
2012-05-10 08:06:00,57.1,57.1,29.97,South,188,0.0,0.0,100,0.00,,,0.00,VWS V13.01,2012-05-10 13:06:00,
2012-05-10 08:11:00,57.7,57.7,29.97,South,188,0.0,0.0,100,0.00,,,0.00,VWS V13.01,2012-05-10 13:11:00,
2012-05-10 08:16:00,58.2,57.7,29.97,SSE,164,0.0,0.0,98,0.00,,,0.00,VWS V13.01,2012-05-10 13:16:00,
2012-05-10 08:21:00,58.9,56.0,29.97,SSE,164,0.0,0.0,90,0.00,,,0.00,VWS V13.01,2012-05-10 13:21:00,
2012-05-10 08:26:00,59.7,53.8,29.97,SSE,164,0.0,0.0,81,0.00,,,0.00,VWS V13.01,2012-05-10 13:26:00,
2012-05-10 08:31:00,60.2,53.0,29.97,SSE,164,0.0,0.0,77,0.00,,,0.00,VWS V13.01,2012-05-10 13:31:00,
2012-05-10 08:36:00,60.7,52.0,29.97,SSE,164,0.0,0.0,73,0.00,,,0.00,VWS V13.01,2012-05-10 13:36:00,
2012-05-10 08:41:00,61.5,51.6,29.97,SSE,164,0.0,0.0,70,0.00,,,0.00,VWS V13.01,2012-05-10 13:41:00,
2012-05-10 08:46:00,62.7,49.1,29.97,ESE,111,0.0,0.0,61,0.00,,,0.00,VWS V13.01,2012-05-10 13:46:00,
2012-05-10 08:51:00,63.6,49.5,29.97,East,88,3.1,3.1,60,0.00,,,0.00,VWS V13.01,2012-05-10 13:51:00,
2012-05-10 08:56:00,64.5,49.0,29.97,ENE,75,0.0,0.0,57,0.00,,,0.00,VWS V13.01,2012-05-10 13:56:00,
2012-05-10 09:01:00,65.4,49.3,29.97,East,93,0.0,0.0,56,0.00,,,0.00,VWS V13.01,2012-05-10 14:01:00,
2012-05-10 09:06:00,66.1,49.5,29.97,SE,143,0.0,0.0,55,0.00,,,0.00,VWS V13.01,2012-05-10 14:06:00,
2012-05-10 09:11:00,67.0,47.3,29.97,SE,143,0.0,0.0,49,0.00,,,0.00,VWS V13.01,2012-05-10 14:11:00,
2012-05-10 09:16:00,67.8,47.9,29.97,SE,138,0.0,0.0,49,0.00,,,0.00,VWS V13.01,2012-05-10 14:16:00,
2012-05-10 09:21:00,68.3,47.9,29.97,SSE,160,2.7,3.6,48,0.00,,,0.00,VWS V13.01,2012-05-10 14:21:00,
2012-05-10 09:26:00,68.8,47.2,29.97,ESE,105,3.6,5.4,46,0.00,,,0.00,VWS V13.01,2012-05-10 14:26:00,
2012-05-10 09:31:00,69.0,47.4,29.97,ENE,78,2.2,2.7,46,0.00,,,0.00,VWS V13.01,2012-05-10 14:31:00,
2012-05-10 09:36:00,69.7,47.5,29.97,ENE,75,3.1,3.6,45,0.00,,,0.00,VWS V13.01,2012-05-10 14:36:00,
2012-05-10 09:41:00,70.6,47.7,29.97,NE,56,2.7,3.6,44,0.00,,,0.00,VWS V13.01,2012-05-10 14:41:00,
2012-05-10 09:46:00,71.0,46.8,29.97,East,85,3.1,5.4,42,0.00,,,0.00,VWS V13.01,2012-05-10 14:46:00,
2012-05-10 09:51:00,70.8,47.2,29.97,ESE,109,0.0,0.0,43,0.00,,,0.00,VWS V13.01,2012-05-10 14:51:00,
2012-05-10 09:56:00,71.0,46.8,29.97,North,352,2.7,5.4,42,0.00,,,0.00,VWS V13.01,2012-05-10 14:56:00,
2012-05-10 10:01:00,71.4,47.1,29.97,ESE,106,4.9,4.9,42,0.00,,,0.00,VWS V13.01,2012-05-10 15:01:00,
2012-05-10 10:06:00,71.5,47.3,29.97,East,91,6.3,6.3,42,0.00,,,0.00,VWS V13.01,2012-05-10 15:06:00,
2012-05-10 10:11:00,71.5,47.3,29.97,SE,138,0.0,4.0,42,0.00,,,0.00,VWS V13.01,2012-05-10 15:11:00,
2012-05-10 10:16:00,72.3,47.9,29.97,NE,53,2.7,4.0,42,0.00,,,0.00,VWS V13.01,2012-05-10 15:16:00,
2012-05-10 10:21:00,73.0,47.3,29.97,East,90,6.3,6.7,40,0.00,,,0.00,VWS V13.01,2012-05-10 15:21:00,
2012-05-10 10:26:00,72.8,48.4,29.97,NE,56,3.6,3.6,42,0.00,,,0.00,VWS V13.01,2012-05-10 15:26:00,
2012-05-10 10:31:00,73.5,48.4,29.97,East,80,4.9,7.6,41,0.00,,,0.00,VWS V13.01,2012-05-10 15:31:00,
2012-05-10 10:36:00,73.2,47.4,29.97,ESE,107,4.0,5.8,40,0.00,,,0.00,VWS V13.01,2012-05-10 15:36:00,
2012-05-10 10:41:00,73.2,48.7,29.97,NE,34,2.7,2.7,42,0.00,,,0.00,VWS V13.01,2012-05-10 15:41:00,
2012-05-10 10:46:00,74.1,49.5,29.97,ESE,120,5.8,5.8,42,0.00,,,0.00,VWS V13.01,2012-05-10 15:46:00,
2012-05-10 10:51:00,74.2,47.0,29.97,ESE,111,2.7,5.8,38,0.00,,,0.00,VWS V13.01,2012-05-10 15:51:00,
2012-05-10 10:56:00,74.4,49.2,29.97,North,10,0.0,2.2,41,0.00,,,0.00,VWS V13.01,2012-05-10 15:56:00,
2012-05-10 11:01:00,75.0,49.7,29.97,SW,214,0.0,4.0,41,0.00,,,0.00,VWS V13.01,2012-05-10 16:01:00,
2012-05-10 11:06:00,75.3,49.3,29.97,ESE,116,0.0,4.0,40,0.00,,,0.00,VWS V13.01,2012-05-10 16:06:00,
2012-05-10 11:11:00,75.9,47.8,29.97,East,94,4.9,5.4,37,0.00,,,0.00,VWS V13.01,2012-05-10 16:11:00,
2012-05-10 11:16:00,75.9,49.2,29.97,East,95,2.7,3.6,39,0.00,,,0.00,VWS V13.01,2012-05-10 16:16:00,
2012-05-10 11:21:00,75.7,46.9,29.97,North,10,2.7,3.6,36,0.00,,,0.00,VWS V13.01,2012-05-10 16:21:00,
2012-05-10 11:26:00,76.0,45.7,29.97,NNE,25,3.6,5.8,34,0.00,,,0.00,VWS V13.01,2012-05-10 16:26:00,
2012-05-10 11:31:00,76.2,47.3,29.97,East,97,2.7,3.6,36,0.00,,,0.00,VWS V13.01,2012-05-10 16:31:00,
2012-05-10 11:36:00,76.9,48.0,29.97,East,93,2.7,4.0,36,0.00,,,0.00,VWS V13.01,2012-05-10 16:36:00,
2012-05-10 11:41:00,76.9,47.2,29.97,NNE,32,3.6,3.6,35,0.00,,,0.00,VWS V13.01,2012-05-10 16:41:00,
2012-05-10 11:46:00,77.3,47.5,29.97,NE,55,3.6,3.6,35,0.00,,,0.00,VWS V13.01,2012-05-10 16:46:00,
2012-05-10 11:51:00,76.9,47.2,29.97,East,88,5.8,5.8,35,0.00,,,0.00,VWS V13.01,2012-05-10 16:51:00,
2012-05-10 11:56:00,76.8,47.8,29.97,ENE,62,3.6,4.0,36,0.00,,,0.00,VWS V13.01,2012-05-10 16:56:00,
2012-05-10 12:01:00,77.5,47.7,29.97,SE,138,3.1,3.6,35,0.00,,,0.00,VWS V13.01,2012-05-10 17:01:00,
2012-05-10 12:06:00,77.1,47.4,29.97,ESE,105,5.4,5.4,35,0.00,,,0.00,VWS V13.01,2012-05-10 17:06:00,
2012-05-10 12:11:00,76.8,47.1,29.97,SE,130,4.9,5.4,35,0.00,,,0.00,VWS V13.01,2012-05-10 17:11:00,
2012-05-10 12:16:00,76.6,46.9,29.94,ESE,123,5.4,5.8,35,0.00,,,0.00,VWS V13.01,2012-05-10 17:16:00,
2012-05-10 12:21:00,76.9,46.5,29.94,ENE,57,2.7,4.0,34,0.00,,,0.00,VWS V13.01,2012-05-10 17:21:00,
2012-05-10 12:26:00,77.1,46.6,29.94,West,274,2.7,3.1,34,0.00,,,0.00,VWS V13.01,2012-05-10 17:26:00,
2012-05-10 12:31:00,77.7,47.1,29.94,NW,305,0.0,3.6,34,0.00,,,0.00,VWS V13.01,2012-05-10 17:31:00,
2012-05-10 12:36:00,78.7,47.2,29.94,NNW,345,3.1,4.0,33,0.00,,,0.00,VWS V13.01,2012-05-10 17:36:00,
2012-05-10 12:41:00,78.0,46.6,29.94,NW,311,3.1,5.4,33,0.00,,,0.00,VWS V13.01,2012-05-10 17:41:00,
2012-05-10 12:46:00,77.7,46.3,29.94,NW,322,2.2,5.4,33,0.00,,,0.00,VWS V13.01,2012-05-10 17:46:00,
2012-05-10 12:51:00,77.8,46.5,29.94,SW,222,2.7,3.1,33,0.00,,,0.00,VWS V13.01,2012-05-10 17:51:00,
2012-05-10 12:56:00,78.4,46.1,29.94,North,4,3.6,3.6,32,0.00,,,0.00,VWS V13.01,2012-05-10 17:56:00,
2012-05-10 13:01:00,79.1,47.6,29.94,SW,222,2.7,3.1,33,0.00,,,0.00,VWS V13.01,2012-05-10 18:01:00,
2012-05-10 13:06:00,79.8,49.0,29.94,SE,129,5.4,5.4,34,0.00,,,0.00,VWS V13.01,2012-05-10 18:06:00,
2012-05-10 13:11:00,79.1,47.6,29.94,SSE,157,3.6,6.3,33,0.00,,,0.00,VWS V13.01,2012-05-10 18:11:00,
2012-05-10 13:16:00,78.7,46.4,29.94,East,79,5.4,5.4,32,0.00,,,0.00,VWS V13.01,2012-05-10 18:16:00,
2012-05-10 13:21:00,78.4,46.1,29.94,NE,44,0.0,3.1,32,0.00,,,0.00,VWS V13.01,2012-05-10 18:21:00,
2012-05-10 13:26:00,78.6,46.3,29.94,NW,320,3.1,3.6,32,0.00,,,0.00,VWS V13.01,2012-05-10 18:26:00,
2012-05-10 13:31:00,78.7,47.2,29.91,WNW,288,2.2,2.2,33,0.00,,,0.00,VWS V13.01,2012-05-10 18:31:00,
2012-05-10 13:36:00,79.6,48.0,29.91,SW,232,4.9,4.9,33,0.00,,,0.00,VWS V13.01,2012-05-10 18:36:00,
2012-05-10 13:41:00,79.8,48.2,29.91,South,171,2.7,2.7,33,0.00,,,0.00,VWS V13.01,2012-05-10 18:41:00,
2012-05-10 13:46:00,79.6,48.0,29.91,SSE,153,4.9,6.3,33,0.00,,,0.00,VWS V13.01,2012-05-10 18:46:00,
2012-05-10 13:51:00,79.5,47.0,29.91,SE,127,3.6,3.6,32,0.00,,,0.00,VWS V13.01,2012-05-10 18:51:00,
2012-05-10 13:56:00,79.3,46.9,29.91,SSE,150,2.7,4.0,32,0.00,,,0.00,VWS V13.01,2012-05-10 18:56:00,
2012-05-10 14:01:00,79.1,46.7,29.91,WSW,238,0.0,2.7,32,0.00,,,0.00,VWS V13.01,2012-05-10 19:01:00,
2012-05-10 14:06:00,79.5,47.9,29.91,South,175,3.6,6.3,33,0.00,,,0.00,VWS V13.01,2012-05-10 19:06:00,
2012-05-10 14:11:00,79.5,48.7,29.91,WSW,245,5.4,5.8,34,0.00,,,0.00,VWS V13.01,2012-05-10 19:11:00,
2012-05-10 14:16:00,79.5,47.9,29.91,South,188,3.6,5.4,33,0.00,,,0.00,VWS V13.01,2012-05-10 19:16:00,
2012-05-10 14:21:00,79.5,48.7,29.91,SSE,161,3.6,4.0,34,0.00,,,0.00,VWS V13.01,2012-05-10 19:21:00,
2012-05-10 14:26:00,80.5,48.0,29.91,SE,143,5.4,7.6,32,0.00,,,0.00,VWS V13.01,2012-05-10 19:26:00,
2012-05-10 14:31:00,80.0,47.5,29.91,East,91,4.9,4.9,32,0.00,,,0.00,VWS V13.01,2012-05-10 19:31:00,
2012-05-10 14:36:00,80.0,47.5,29.91,SSE,153,5.8,6.3,32,0.00,,,0.00,VWS V13.01,2012-05-10 19:36:00,
2012-05-10 14:41:00,80.0,47.5,29.91,ESE,116,3.6,6.3,32,0.00,,,0.00,VWS V13.01,2012-05-10 19:41:00,
2012-05-10 14:46:00,80.4,47.8,29.91,SSE,158,5.8,8.3,32,0.00,,,0.00,VWS V13.01,2012-05-10 19:46:00,
2012-05-10 14:51:00,79.6,48.8,29.91,SW,234,5.8,7.6,34,0.00,,,0.00,VWS V13.01,2012-05-10 19:51:00,
2012-05-10 14:56:00,80.2,48.5,29.91,SW,225,3.1,3.6,33,0.00,,,0.00,VWS V13.01,2012-05-10 19:56:00,
2012-05-10 15:01:00,80.5,48.0,29.91,South,178,8.7,8.7,32,0.00,,,0.00,VWS V13.01,2012-05-10 20:01:00,
2012-05-10 15:03:00,80.2,47.7,29.91,SSE,168,3.6,3.6,32,0.00,,,0.00,VWS V13.01,2012-05-10 20:03:00,
2012-05-10 15:04:00,80.2,48.5,29.91,South,174,4.0,4.0,33,0.00,,,0.00,VWS V13.01,2012-05-10 20:04:00,
2012-05-10 15:06:00,80.0,47.5,29.91,SSE,160,5.4,7.6,32,0.00,,,0.00,VWS V13.01,2012-05-10 20:06:00,
2012-05-10 15:07:00,80.0,47.5,29.91,SSE,150,4.9,5.8,32,0.00,,,0.00,VWS V13.01,2012-05-10 20:07:00,
2012-05-10 15:12:00,80.2,47.7,29.91,ESE,108,4.0,4.0,32,0.00,,,0.00,VWS V13.01,2012-05-10 20:12:00,
2012-05-10 15:17:00,80.5,48.0,29.91,SSE,147,5.8,5.8,32,0.00,,,0.00,VWS V13.01,2012-05-10 20:17:00,
2012-05-10 15:22:00,80.2,46.8,29.91,SE,132,3.6,3.6,31,0.00,,,0.00,VWS V13.01,2012-05-10 20:22:00,
2012-05-10 15:27:00,80.2,46.8,29.91,South,191,2.7,4.0,31,0.00,,,0.00,VWS V13.01,2012-05-10 20:27:00,
2012-05-10 15:32:00,80.2,46.8,29.88,South,169,5.4,5.4,31,0.00,,,0.00,VWS V13.01,2012-05-10 20:32:00,
2012-05-10 15:37:00,80.2,46.8,29.88,South,174,6.3,6.3,31,0.00,,,0.00,VWS V13.01,2012-05-10 20:37:00,
2012-05-10 15:42:00,80.5,48.0,29.88,SW,225,3.6,4.0,32,0.00,,,0.00,VWS V13.01,2012-05-10 20:42:00,
2012-05-10 15:47:00,81.6,48.9,29.91,South,184,5.8,5.8,32,0.00,,,0.00,VWS V13.01,2012-05-10 20:47:00,
2012-05-10 15:49:00,81.8,49.1,29.91,WSW,238,2.7,3.6,32,0.00,,,0.00,VWS V13.01,2012-05-10 20:49:00,
2012-05-10 15:53:00,82.2,48.5,29.91,SE,127,4.0,4.0,31,0.00,,,0.00,VWS V13.01,2012-05-10 20:53:00,
2012-05-10 15:55:00,82.0,48.4,29.91,SSE,147,4.9,4.9,31,0.00,,,0.00,VWS V13.01,2012-05-10 20:55:00,
2012-05-10 15:57:00,81.8,48.2,29.91,ESE,121,7.6,7.6,31,0.00,,,0.00,VWS V13.01,2012-05-10 20:57:00,
2012-05-10 15:58:00,81.8,48.2,29.91,ESE,122,6.3,7.6,31,0.00,,,0.00,VWS V13.01,2012-05-10 20:58:00,
2012-05-10 15:59:00,81.8,48.2,29.88,SSE,150,4.0,6.3,31,0.00,,,0.00,VWS V13.01,2012-05-10 20:59:00,
2012-05-10 16:01:00,81.6,48.1,29.88,SSE,147,5.8,5.8,31,0.00,,,0.00,VWS V13.01,2012-05-10 21:01:00,
2012-05-10 16:02:00,81.6,48.1,29.88,ESE,106,4.0,5.8,31,0.00,,,0.00,VWS V13.01,2012-05-10 21:02:00,
2012-05-10 16:07:00,81.4,47.9,29.88,SSW,201,4.9,5.4,31,0.00,,,0.00,VWS V13.01,2012-05-10 21:07:00,
2012-05-10 16:12:00,81.8,49.1,29.88,SSW,197,2.7,3.6,32,0.00,,,0.00,VWS V13.01,2012-05-10 21:12:00,
2012-05-10 16:17:00,81.6,48.1,29.88,ESE,117,3.6,4.9,31,0.00,,,0.00,VWS V13.01,2012-05-10 21:17:00,
2012-05-10 16:22:00,81.6,48.1,29.88,South,169,3.6,4.0,31,0.00,,,0.00,VWS V13.01,2012-05-10 21:22:00,
2012-05-10 16:27:00,81.8,48.2,29.88,SSW,200,7.6,7.6,31,0.00,,,0.00,VWS V13.01,2012-05-10 21:27:00,
2012-05-10 16:32:00,81.6,48.9,29.88,South,171,4.0,4.9,32,0.00,,,0.00,VWS V13.01,2012-05-10 21:32:00,
2012-05-10 16:37:00,82.0,48.4,29.88,SSE,147,2.7,2.7,31,0.00,,,0.00,VWS V13.01,2012-05-10 21:37:00,
2012-05-10 16:42:00,82.5,48.9,29.88,SSE,152,3.6,3.6,31,0.00,,,0.00,VWS V13.01,2012-05-10 21:42:00,
2012-05-10 16:47:00,82.9,49.2,29.88,SE,128,3.1,7.6,31,0.00,,,0.00,VWS V13.01,2012-05-10 21:47:00,
2012-05-10 16:52:00,82.5,48.9,29.88,ESE,120,6.3,6.3,31,0.00,,,0.00,VWS V13.01,2012-05-10 21:52:00,
2012-05-10 16:57:00,82.3,48.7,29.88,ESE,114,2.7,3.6,31,0.00,,,0.00,VWS V13.01,2012-05-10 21:57:00,
2012-05-10 17:02:00,82.3,48.7,29.88,ENE,70,5.4,7.6,31,0.00,,,0.00,VWS V13.01,2012-05-10 22:02:00,
2012-05-10 17:07:00,82.2,48.5,29.88,South,175,2.7,2.7,31,0.00,,,0.00,VWS V13.01,2012-05-10 22:07:00,
2012-05-10 17:12:00,82.3,48.7,29.88,South,185,5.8,5.8,31,0.00,,,0.00,VWS V13.01,2012-05-10 22:12:00,
2012-05-10 17:17:00,81.8,48.2,29.88,SE,128,3.6,4.0,31,0.00,,,0.00,VWS V13.01,2012-05-10 22:17:00,
2012-05-10 17:22:00,81.8,48.2,29.88,ESE,109,3.6,4.5,31,0.00,,,0.00,VWS V13.01,2012-05-10 22:22:00,
2012-05-10 17:27:00,82.0,48.4,29.88,East,98,2.7,2.7,31,0.00,,,0.00,VWS V13.01,2012-05-10 22:27:00,
2012-05-10 17:32:00,82.2,48.5,29.88,SE,136,3.1,3.6,31,0.00,,,0.00,VWS V13.01,2012-05-10 22:32:00,
2012-05-10 17:37:00,82.2,48.5,29.88,South,182,2.7,5.4,31,0.00,,,0.00,VWS V13.01,2012-05-10 22:37:00,
2012-05-10 17:42:00,82.2,48.5,29.88,ENE,64,4.9,4.9,31,0.00,,,0.00,VWS V13.01,2012-05-10 22:42:00,
2012-05-10 17:47:00,82.2,48.5,29.88,SSE,147,3.6,3.6,31,0.00,,,0.00,VWS V13.01,2012-05-10 22:47:00,
2012-05-10 17:52:00,82.0,48.4,29.88,South,174,5.8,6.3,31,0.00,,,0.00,VWS V13.01,2012-05-10 22:52:00,
2012-05-10 17:57:00,81.8,48.2,29.88,SSE,164,3.1,3.1,31,0.00,,,0.00,VWS V13.01,2012-05-10 22:57:00,
2012-05-10 18:02:00,82.0,48.4,29.88,SSE,147,5.8,5.8,31,0.00,,,0.00,VWS V13.01,2012-05-10 23:02:00,
2012-05-10 18:07:00,81.8,48.2,29.88,SSE,156,3.1,3.6,31,0.00,,,0.00,VWS V13.01,2012-05-10 23:07:00,
2012-05-10 18:12:00,81.8,48.2,29.88,SE,139,2.7,3.6,31,0.00,,,0.00,VWS V13.01,2012-05-10 23:12:00,
2012-05-10 18:17:00,81.8,48.2,29.88,ESE,110,0.0,2.2,31,0.00,,,0.00,VWS V13.01,2012-05-10 23:17:00,
2012-05-10 18:22:00,82.0,48.4,29.88,SSE,160,0.0,0.0,31,0.00,,,0.00,VWS V13.01,2012-05-10 23:22:00,
2012-05-10 18:27:00,82.2,48.5,29.88,SE,129,0.0,0.0,31,0.00,,,0.00,VWS V13.01,2012-05-10 23:27:00,
2012-05-10 18:33:00,82.7,49.0,29.88,ESE,112,0.0,0.0,31,0.00,,,0.00,VWS V13.01,2012-05-10 23:33:00,
2012-05-10 18:38:00,82.5,48.9,29.88,SSE,151,2.7,2.7,31,0.00,,,0.00,VWS V13.01,2012-05-10 23:38:00,
2012-05-10 18:43:00,82.0,48.4,29.88,SE,133,2.7,2.7,31,0.00,,,0.00,VWS V13.01,2012-05-10 23:43:00,
2012-05-10 18:48:00,81.8,48.2,29.88,South,182,3.1,4.0,31,0.00,,,0.00,VWS V13.01,2012-05-10 23:48:00,
2012-05-10 18:52:00,81.6,48.1,29.88,South,182,0.0,0.0,31,0.00,,,0.00,VWS V13.01,2012-05-10 23:52:00,
2012-05-10 18:57:00,81.4,47.9,29.88,South,182,0.0,0.0,31,0.00,,,0.00,VWS V13.01,2012-05-10 23:57:00,
2012-05-10 19:02:00,81.1,47.6,29.88,South,181,0.0,0.0,31,0.00,,,0.00,VWS V13.01,2012-05-11 00:02:00,
2012-05-10 19:07:00,80.9,48.3,29.88,South,181,0.0,0.0,32,0.00,,,0.00,VWS V13.01,2012-05-11 00:07:00,
2012-05-10 19:12:00,80.5,48.0,29.88,SE,136,0.0,0.0,32,0.00,,,0.00,VWS V13.01,2012-05-11 00:12:00,
2012-05-10 19:17:00,80.0,47.5,29.88,ESE,118,0.0,0.0,32,0.00,,,0.00,VWS V13.01,2012-05-11 00:17:00,
2012-05-10 19:22:00,79.6,47.2,29.88,ESE,118,0.0,0.0,32,0.00,,,0.00,VWS V13.01,2012-05-11 00:22:00,
2012-05-10 19:27:00,79.3,46.9,29.88,ESE,118,0.0,0.0,32,0.00,,,0.00,VWS V13.01,2012-05-11 00:27:00,
2012-05-10 19:32:00,78.9,47.4,29.88,ESE,118,0.0,0.0,33,0.00,,,0.00,VWS V13.01,2012-05-11 00:32:00,
2012-05-10 19:37:00,78.4,47.7,29.88,ESE,118,0.0,0.0,34,0.00,,,0.00,VWS V13.01,2012-05-11 00:37:00,
2012-05-10 19:42:00,77.7,47.1,29.88,ESE,118,0.0,0.0,34,0.00,,,0.00,VWS V13.01,2012-05-11 00:42:00,
2012-05-10 19:47:00,76.8,48.5,29.88,ESE,105,0.0,0.0,37,0.00,,,0.00,VWS V13.01,2012-05-11 00:47:00,
2012-05-10 19:52:00,76.0,50.7,29.88,East,83,0.0,0.0,41,0.00,,,0.00,VWS V13.01,2012-05-11 00:52:00,
2012-05-10 19:57:00,75.5,50.8,29.88,East,83,0.0,0.0,42,0.00,,,0.00,VWS V13.01,2012-05-11 00:57:00,
2012-05-10 20:02:00,75.0,51.6,29.88,NNE,23,0.0,0.0,44,0.00,,,0.00,VWS V13.01,2012-05-11 01:02:00,
2012-05-10 20:07:00,74.4,51.1,29.88,NNE,30,0.0,0.0,44,0.00,,,0.00,VWS V13.01,2012-05-11 01:07:00,
2012-05-10 20:12:00,73.9,50.0,29.88,NNE,30,0.0,0.0,43,0.00,,,0.00,VWS V13.01,2012-05-11 01:12:00,
2012-05-10 20:17:00,73.7,51.7,29.88,NNE,30,0.0,0.0,46,0.00,,,0.00,VWS V13.01,2012-05-11 01:17:00,
2012-05-10 20:22:00,73.3,50.7,29.88,NNE,30,0.0,0.0,45,0.00,,,0.00,VWS V13.01,2012-05-11 01:22:00,
2012-05-10 20:27:00,73.2,51.2,29.88,NNE,30,0.0,0.0,46,0.00,,,0.00,VWS V13.01,2012-05-11 01:27:00,
2012-05-10 20:32:00,72.8,51.4,29.88,NNE,30,0.0,0.0,47,0.00,,,0.00,VWS V13.01,2012-05-11 01:32:00,
2012-05-10 20:37:00,72.3,52.0,29.88,NNE,30,0.0,0.0,49,0.00,,,0.00,VWS V13.01,2012-05-11 01:37:00,
2012-05-10 20:42:00,71.7,52.1,29.88,NNE,30,0.0,0.0,50,0.00,,,0.00,VWS V13.01,2012-05-11 01:42:00,
2012-05-10 20:47:00,71.4,52.3,29.88,NNE,30,0.0,0.0,51,0.00,,,0.00,VWS V13.01,2012-05-11 01:47:00,
2012-05-10 20:52:00,71.0,52.0,29.88,NNE,30,0.0,0.0,51,0.00,,,0.00,VWS V13.01,2012-05-11 01:52:00,
2012-05-10 20:57:00,70.8,52.9,29.88,NNE,30,0.0,0.0,53,0.00,,,0.00,VWS V13.01,2012-05-11 01:57:00,
2012-05-10 21:02:00,70.5,53.5,29.91,NNE,30,0.0,0.0,55,0.00,,,0.00,VWS V13.01,2012-05-11 02:02:00,
2012-05-10 21:07:00,69.6,54.2,29.91,NNE,31,0.0,2.2,58,0.00,,,0.00,VWS V13.01,2012-05-11 02:07:00,
2012-05-10 21:12:00,68.8,53.9,29.91,North,10,0.0,0.0,59,0.00,,,0.00,VWS V13.01,2012-05-11 02:12:00,
2012-05-10 21:17:00,68.5,55.0,29.91,North,11,0.0,0.0,62,0.00,,,0.00,VWS V13.01,2012-05-11 02:17:00,
2012-05-10 21:22:00,67.8,54.7,29.91,North,11,0.0,0.0,63,0.00,,,0.00,VWS V13.01,2012-05-11 02:22:00,
2012-05-10 21:27:00,67.2,54.6,29.91,North,11,0.0,0.0,64,0.00,,,0.00,VWS V13.01,2012-05-11 02:27:00,
2012-05-10 21:32:00,66.9,55.2,29.91,North,11,0.0,0.0,66,0.00,,,0.00,VWS V13.01,2012-05-11 02:32:00,
2012-05-10 21:37:00,66.5,55.6,29.91,North,11,0.0,0.0,68,0.00,,,0.00,VWS V13.01,2012-05-11 02:37:00,
2012-05-10 21:42:00,66.1,55.3,29.91,North,11,0.0,0.0,68,0.00,,,0.00,VWS V13.01,2012-05-11 02:42:00,
2012-05-10 21:47:00,66.0,54.7,29.91,North,11,0.0,0.0,67,0.00,,,0.00,VWS V13.01,2012-05-11 02:47:00,
2012-05-10 21:52:00,65.8,55.3,29.91,North,11,0.0,0.0,69,0.00,,,0.00,VWS V13.01,2012-05-11 02:52:00,
2012-05-10 21:57:00,65.4,55.0,29.91,North,11,0.0,0.0,69,0.00,,,0.00,VWS V13.01,2012-05-11 02:57:00,
2012-05-10 22:02:00,65.4,54.2,29.91,NNE,18,0.0,0.0,67,0.00,,,0.00,VWS V13.01,2012-05-11 03:02:00,
2012-05-10 22:07:00,65.2,53.6,29.91,NNE,24,0.0,0.0,66,0.00,,,0.00,VWS V13.01,2012-05-11 03:07:00,
2012-05-10 22:12:00,65.2,53.2,29.91,NNE,29,0.0,0.0,65,0.00,,,0.00,VWS V13.01,2012-05-11 03:12:00,
2012-05-10 22:17:00,65.2,53.6,29.91,NNE,29,0.0,0.0,66,0.00,,,0.00,VWS V13.01,2012-05-11 03:17:00,
2012-05-10 22:22:00,64.9,53.3,29.91,NE,34,0.0,0.0,66,0.00,,,0.00,VWS V13.01,2012-05-11 03:22:00,
2012-05-10 22:27:00,64.7,53.1,29.91,NE,34,0.0,0.0,66,0.00,,,0.00,VWS V13.01,2012-05-11 03:27:00,
2012-05-10 22:32:00,64.7,53.1,29.91,NE,34,0.0,0.0,66,0.00,,,0.00,VWS V13.01,2012-05-11 03:32:00,
2012-05-10 22:37:00,64.5,52.5,29.91,NE,34,0.0,0.0,65,0.00,,,0.00,VWS V13.01,2012-05-11 03:37:00,
2012-05-10 22:42:00,64.3,53.2,29.91,NE,34,0.0,0.0,67,0.00,,,0.00,VWS V13.01,2012-05-11 03:42:00,
2012-05-10 22:47:00,64.3,52.8,29.91,NE,34,0.0,0.0,66,0.00,,,0.00,VWS V13.01,2012-05-11 03:47:00,
2012-05-10 22:52:00,64.3,53.2,29.91,NE,34,0.0,0.0,67,0.00,,,0.00,VWS V13.01,2012-05-11 03:52:00,
2012-05-10 22:57:00,64.3,53.6,29.91,NE,34,0.0,0.0,68,0.00,,,0.00,VWS V13.01,2012-05-11 03:57:00,
2012-05-10 23:00:00,64.2,53.8,29.94,NE,34,0.0,0.0,69,0.00,,,0.00,VWS V13.01,2012-05-11 04:00:00,
2012-05-10 23:05:00,63.8,54.2,29.94,NE,34,0.0,0.0,71,0.00,,,0.00,VWS V13.01,2012-05-11 04:05:00,
2012-05-10 23:10:00,63.4,54.3,29.94,NE,34,0.0,0.0,72,0.00,,,0.00,VWS V13.01,2012-05-11 04:10:00,
2012-05-10 23:11:00,63.3,54.1,29.94,NE,34,0.0,0.0,72,0.00,,,0.00,VWS V13.01,2012-05-11 04:11:00,
2012-05-10 23:16:00,62.9,54.9,29.94,NE,34,0.0,0.0,75,0.00,,,0.00,VWS V13.01,2012-05-11 04:16:00,
2012-05-10 23:21:00,62.5,55.2,29.94,NE,34,0.0,0.0,77,0.00,,,0.00,VWS V13.01,2012-05-11 04:21:00,
2012-05-10 23:26:00,62.2,55.2,29.94,NE,34,0.0,0.0,78,0.00,,,0.00,VWS V13.01,2012-05-11 04:26:00,
2012-05-10 23:31:00,62.0,55.4,29.94,NE,34,0.0,0.0,79,0.00,,,0.00,VWS V13.01,2012-05-11 04:31:00,
2012-05-10 23:36:00,61.8,55.2,29.94,NE,34,0.0,0.0,79,0.00,,,0.00,VWS V13.01,2012-05-11 04:36:00,
2012-05-10 23:41:00,61.8,55.6,29.94,NE,34,0.0,0.0,80,0.00,,,0.00,VWS V13.01,2012-05-11 04:41:00,
2012-05-10 23:46:00,61.6,55.8,29.94,NE,34,0.0,0.0,81,0.00,,,0.00,VWS V13.01,2012-05-11 04:46:00,
2012-05-10 23:51:00,61.5,55.6,29.94,NE,34,0.0,0.0,81,0.00,,,0.00,VWS V13.01,2012-05-11 04:51:00,
2012-05-10 23:56:00,61.5,55.6,29.94,NE,34,0.0,0.0,81,0.00,,,0.00,VWS V13.01,2012-05-11 04:56:00,